Погода в Нууссуаке

Гренландия     74°06′00″N   57°06′00″W
темп.,
°C
ветер,
м/с
пор.,
м/с
влажн.,
%
обл.,
%
осадки,
мм/ч
давл.,
гПа
погр.,
м
26 января, вт
вт2600:00−18вюв11560 0.0 101737
03:00−18ююв34670 0.0 101596
06:00−19ююв45700 0.0 1014127
09:00−20ююв57700 0.0 1013197
12:00−19ююв698767 0.0 1013300
15:00−20ю7119276 0.1 1013359
18:00−21ююв7119273 0.0 1014331
21:00−22ююв7118943 0.0 1015303
27 января, ср
ср2700:00−22ю698943 0.0 1016296
03:00−24ю699233 0.0 1017226
06:00−24ю589889 0.0 1020229
09:00−25ю569894 0.0 1021204
12:00−25ю4598100 0.0 1023174
15:00−25ююз3497100 0.1 1024149
18:00−26ююз2398100 0.0 1025140
21:00−27ююз2299100 0.1 1027114
28 января, чт
чт2800:00−28ю1299100 0.0 1027108
03:00−28в1199100 0.0 1027113
06:00−29ссв22100100 0.0 102880
09:00−29с349877 0.0 102799
12:00−29ссз459917 0.0 102795
15:00−29ссз45998 0.0 102689
18:00−29ссз45966 0.0 102692
21:00−29ссз458941 0.0 1026115
29 января, пт
пт2900:00−28ссз4585100 0.0 1024132
03:00−29ссз458298 0.0 1023115
06:00−29ссз46782 0.0 1024105
09:00−29ссз56782 0.0 1023110
12:00−28ссз57790 0.0 1023114
15:00−28ссз567721 0.0 1023112
18:00−27ссз567612 0.0 1023108
21:00−27ссз46746 0.0 1023105
30 января, сб
сб3000:00−27ссз46730 0.0 1023105
03:00−26ссз56730 0.0 1023105
06:00−26ссз56720 0.0 102399
09:00−25ссз56692 0.0 102396
12:00−25ссз57710 0.0 1021102
15:00−24ссз56706 0.0 101996
18:00−24ссз457257 0.0 101889
21:00−24сз237079 0.0 101688